Location: Lane
(33.5226°N, 79.8788°W)
Time: 06:50:59
(UTC+00:00)

Tiros 1 - Pass Details

Date: 08 October 2022
Orbit: 629 x 662 km, 48.4° (Epoch: 09 December)

Event Time Altitude Azimuth Distance (km) Brightness Sun altitude
Exits shadow 10:18:52 20° 257° (WSW) 1,507 8.4 -13.3°
Maximum altitude 10:20:24 23° 229° (SW) 1,365 8.4 -13.0°
Drops below altitude 10° 10:24:05 10° 177° (S) 2,025 9.7 -12.2°
Sets 10:26:46 0° 163° (SSE) 2,924 10.7 -11.7°
